Theta_e
303 301 301 300 300 298 297 297 297 298 298 295 294 295 295 295 294 294 292 292 291 291 291 290 290 290 289 289 288 288 288 288 288 288 288 287 287 287 288 287 286 285 285 285 286 286 285 284 284 284 284 283 282 282 282 282 284 284 284 284 284 282 283 279 278 279 281 282 283 282 282 281 279 281 280 281 280 281 281 281 281 280 280 280 280
303 302 300 300 299 298 297 297 296 295 294 292 292 293 293 293 293 292 290 290 290 290 290 290 289 289 288 288 288 287 287 287 287 288 287 286 286 287 286 286 285 284 284 283 284 285 284 283 283 282 282 281 281 281 281 281 281 281 281 283 281 283 283 280 279 278 278 280 280 282 280 281 278 282 279 279 279 280 279 280 280 280 280 280 280
303 302 299 298 298 297 296 295 293 292 292 291 291 291 291 291 291 291 291 290 290 290 290 289 288 288 288 287 287 286 287 287 287 287 286 286 285 286 286 284 284 283 283 283 283 283 282 282 281 281 282 280 280 280 281 281 281 280 280 280 280 280 280 282 278 278 278 278 280 278 279 279 279 279 280 280 280 280 278 279 279 281 281 280 280
303 301 299 297 297 297 296 294 292 291 290 289 290 290 290 290 290 290 290 290 289 289 289 288 288 287 286 286 286 286 286 286 286 286 286 285 285 284 284 284 284 283 283 282 282 282 282 281 280 280 280 279 279 280 280 280 280 280 280 280 279 279 279 279 279 278 278 277 279 278 281 278 278 280 280 280 278 278 279 279 280 279 280 280 280
303 301 298 296 296 297 296 295 292 290 290 289 289 290 289 289 289 289 289 289 289 288 288 288 287 287 286 285 286 285 285 285 285 285 285 285 284 284 284 284 283 283 283 282 282 281 281 281 280 279 279 279 279 280 280 280 280 280 280 280 280 280 280 279 278 278 278 277 278 279 278 278 278 278 278 277 277 278 278 278 278 279 279 280 280
301 300 297 295 295 295 295 296 294 292 290 289 288 289 289 288 288 288 288 288 288 288 287 287 286 286 285 285 285 285 285 284 284 285 285 284 284 284 284 283 283 283 282 282 282 281 281 280 280 279 279 279 280 280 280 280 280 280 280 280 280 280 279 279 279 278 278 278 278 277 278 278 277 278 278 277 277 276 277 278 278 279 278 278 279
299 298 296 296 295 295 295 296 296 293 290 290 288 289 288 288 288 288 288 287 287 286 286 286 286 285 285 285 285 284 284 284 285 284 284 284 284 283 283 283 282 282 282 281 281 281 280 280 279 279 279 280 280 281 281 280 280 280 280 279 280 279 279 278 278 278 278 277 277 278 277 278 278 276 277 278 278 277 276 276 276 278 278 277 277
298 297 296 295 294 295 294 294 294 293 291 290 288 288 288 287 287 287 287 287 286 285 285 285 285 285 285 284 285 285 284 284 284 284 284 284 283 283 282 282 282 281 281 280 280 280 280 280 280 280 280 281 281 282 281 280 281 280 280 280 279 279 278 278 278 278 277 277 277 277 278 277 277 278 278 277 276 277 278 276 275 275 276 277 277
296 296 295 295 294 293 293 291 292 292 290 289 288 288 288 287 287 286 286 286 286 285 285 285 284 284 285 284 284 284 284 284 284 283 283 283 283 282 282 282 281 280 280 279 279 279 279 279 280 280 281 282 283 284 284 284 281 280 280 280 279 279 278 278 278 278 278 277 277 278 277 277 277 277 276 277 276 276 277 277 275 276 276 276 276
295 295 294 294 294 293 292 291 290 290 289 288 287 287 286 286 286 285 285 285 285 285 284 285 284 284 284 283 283 284 284 284 284 285 285 283 283 283 282 282 281 280 279 279 278 279 279 279 280 282 282 283 283 284 285 285 285 283 281 280 279 278 278 278 278 278 277 277 277 276 276 276 277 277 277 277 277 277 276 276 275 275 275 275 275
295 295 294 294 293 292 291 290 289 288 288 287 287 286 285 285 285 285 285 284 284 284 284 284 284 284 283 283 282 283 283 283 285 288 288 287 283 282 281 281 280 280 279 278 278 278 278 279 279 281 282 282 282 284 284 285 285 285 285 284 283 280 278 277 277 278 277 277 277 276 277 276 277 277 277 277 277 277 276 276 275 275 273 271 270
295 294 294 293 292 293 291 290 289 288 288 287 287 286 285 285 284 284 284 284 284 284 283 283 283 283 283 283 282 282 282 284 287 288 288 288 285 282 281 281 280 279 279 279 278 278 278 279 279 280 281 281 281 281 282 283 284 284 284 283 283 283 283 280 278 277 277 276 276 276 276 276 276 277 277 277 277 277 276 276 275 274 273 272 272
294 294 293 292 291 293 291 290 289 288 287 287 287 286 285 285 285 284 284 284 284 284 283 283 283 283 282 282 282 282 281 285 287 288 288 288 287 283 281 281 280 279 279 279 279 279 279 279 279 280 280 282 281 280 280 281 283 283 283 283 283 283 283 283 283 279 277 277 276 276 277 277 276 277 278 277 278 276 276 275 275 274 274 272 272
294 294 293 292 292 293 291 290 288 288 287 287 286 285 285 285 284 285 285 285 284 283 284 283 283 282 282 282 282 282 281 284 287 287 288 288 287 285 281 280 280 279 279 279 279 279 280 280 280 280 280 280 280 280 280 280 280 281 281 280 280 281 282 283 283 282 281 278 277 275 277 278 276 277 278 279 277 275 274 273 273 273 272 272 273
293 293 292 291 292 292 291 289 288 287 287 286 286 285 285 285 284 285 284 284 284 283 283 283 283 283 282 282 282 281 281 285 287 287 287 287 287 285 281 281 280 280 280 280 280 280 280 280 281 281 280 280 280 280 280 280 280 279 279 279 279 279 279 280 280 280 280 279 278 277 277 278 278 278 279 279 278 277 276 275 274 273 273 274 273
293 293 292 291 291 293 291 290 288 287 286 286 285 285 285 285 284 284 284 284 285 285 284 284 283 282 282 282 281 281 281 286 287 287 287 287 287 283 281 281 280 280 280 280 280 280 280 281 281 281 281 280 282 284 282 281 279 278 278 278 279 280 280 282 282 282 281 280 279 278 278 279 280 279 280 279 278 278 277 276 275 274 272 270 269
292 292 292 291 291 292 292 290 289 287 286 285 285 285 284 284 284 285 284 284 284 284 283 283 283 283 282 282 281 281 281 284 286 287 287 288 287 283 282 281 281 280 280 280 280 280 281 281 281 281 281 281 283 285 285 283 278 277 277 277 278 279 279 281 284 284 284 284 283 283 283 282 283 283 282 282 280 278 276 274 272 272 270 269 269
292 292 292 291 290 292 292 290 289 287 286 285 285 285 285 285 284 285 284 284 283 283 284 283 283 283 282 281 281 281 281 282 286 286 287 287 286 284 283 282 281 281 280 280 281 281 281 283 283 281 281 281 285 286 285 283 278 277 276 276 275 276 277 279 279 281 284 284 284 284 284 284 284 284 284 283 282 281 275 272 273 272 270 270 268
292 292 292 291 290 290 291 289 288 286 285 285 285 284 284 284 284 285 284 284 284 284 284 283 282 282 282 281 282 281 281 282 285 286 287 287 286 284 284 284 283 282 281 281 281 281 281 282 283 282 281 282 285 286 285 283 279 277 276 275 275 274 276 277 277 275 275 276 278 280 280 281 281 281 281 283 283 282 279 275 275 273 270 270 270
292 292 292 290 290 289 289 288 287 286 285 285 285 285 285 284 284 284 284 284 284 284 283 283 281 282 282 281 281 281 281 280 283 285 286 287 287 285 285 284 283 283 283 282 282 281 281 281 282 284 284 284 284 285 285 285 280 278 277 276 275 274 274 275 275 275 274 275 274 276 276 277 278 279 279 279 279 280 280 278 276 274 272 271 270
292 291 291 290 289 288 288 287 286 286 286 285 285 285 285 284 284 284 283 284 283 283 282 282 281 281 280 280 280 280 280 280 282 285 286 286 287 286 284 284 284 284 284 283 283 282 281 281 280 283 284 284 284 284 284 285 284 280 278 276 276 277 277 273 275 277 274 274 274 274 274 275 276 276 275 276 276 277 278 278 277 276 274 272 270
291 291 290 289 288 287 287 286 286 286 285 285 285 285 285 285 284 284 283 283 282 282 281 281 281 280 280 280 280 280 281 282 281 283 285 286 286 287 284 284 285 284 283 283 282 282 282 282 281 282 284 284 284 284 284 284 284 282 281 282 282 281 278 276 274 274 274 274 273 274 274 274 274 273 273 273 273 274 275 275 276 275 275 273 271
290 289 288 287 287 286 286 286 286 286 285 285 285 284 284 284 284 283 283 282 282 281 280 280 280 280 280 279 280 280 280 281 282 282 284 285 285 286 286 285 286 285 283 282 282 282 283 283 283 284 284 284 284 284 284 284 283 282 283 284 283 283 281 277 276 275 275 274 274 273 273 274 273 272 272 273 273 273 273 274 274 274 274 274 273
288 287 287 286 286 286 286 286 286 286 286 285 285 284 284 283 283 283 282 282 281 280 280 280 280 279 279 279 279 279 279 280 282 282 282 284 285 286 286 286 286 284 284 282 282 283 282 282 282 285 285 284 284 284 284 284 283 283 284 284 283 283 281 280 278 277 276 275 274 274 274 275 274 273 272 273 273 273 272 273 273 273 273 272 272
287 286 286 286 286 286 286 286 286 285 285 285 285 284 283 283 283 283 282 281 281 280 279 279 279 279 279 278 278 278 278 279 279 280 282 283 284 285 285 286 286 286 284 283 283 282 284 285 285 285 284 284 284 284 283 283 284 284 284 283 283 281 281 280 279 278 276 275 275 275 275 275 276 275 275 274 273 272 271 271 271 271 271 271 270
286 286 286 285 285 285 285 285 285 285 285 285 285 284 283 282 282 281 281 281 280 280 279 279 279 279 279 279 279 278 278 277 277 278 280 280 281 283 284 285 285 285 285 284 285 285 285 285 284 284 283 283 282 281 280 280 282 283 283 283 281 281 281 280 280 279 276 275 275 275 275 276 275 275 274 272 271 270 270 269 268 268 268 267 266
285 285 285 285 285 285 284 284 284 284 285 285 284 283 283 282 282 280 280 280 280 280 280 278 279 279 279 279 280 279 277 277 277 277 277 278 278 279 280 281 283 283 283 283 283 283 284 284 283 284 283 283 283 282 281 282 281 281 281 281 281 281 281 281 280 279 278 277 276 276 275 275 273 271 270 270 270 270 270 268 268 267 267 267 266
285 285 285 284 284 284 284 279 282 283 283 284 283 282 282 282 281 280 280 281 280 280 280 279 279 279 279 280 279 279 278 277 277 276 276 277 278 278 278 278 278 279 280 280 280 281 280 282 281 281 281 280 281 281 281 280 280 280 280 280 280 280 281 281 281 280 279 279 277 276 274 271 270 270 270 269 269 269 268 268 267 267 267 267 265
284 284 283 283 283 283 283 282 282 282 282 283 283 282 282 282 282 281 282 283 283 282 281 280 280 281 281 280 279 278 278 278 278 279 277 278 277 277 277 277 278 278 280 281 279 277 277 277 277 277 277 277 277 278 278 279 279 279 279 279 279 279 278 278 277 278 278 277 276 275 273 270 270 269 268 267 267 267 267 266 267 266 267 266 264
283 282 282 282 282 282 281 281 282 281 282 282 280 278 278 283 283 282 281 283 284 285 284 282 282 282 281 282 281 280 279 280 281 281 280 280 280 280 279 279 280 279 280 281 279 276 275 275 275 275 275 275 275 276 276 277 277 277 278 278 278 277 277 277 277 277 277 276 276 275 274 270 269 268 267 267 267 267 267 267 265 266 264 265 264
281 281 281 281 281 281 281 281 281 281 281 281 280 278 278 279 281 282 283 282 282 283 283 283 284 284 282 280 281 283 283 283 282 281 281 280 280 280 280 280 280 279 279 277 275 275 273 274 274 275 275 275 275 275 275 275 276 276 276 277 277 276 276 276 275 276 276 275 274 274 273 271 270 269 267 267 267 266 266 266 265 265 264 264 263
281 281 282 281 280 280 281 280 280 280 280 280 280 279 278 277 277 280 281 281 281 282 282 282 282 282 282 281 280 279 281 281 281 281 281 281 280 280 280 280 280 280 279 279 274 274 274 274 274 274 274 274 274 274 274 275 275 275 275 274 275 275 275 274 275 274 274 273 273 272 272 271 269 269 268 268 267 266 265 264 264 264 264 264 263
281 281 281 280 280 279 279 279 279 279 279 279 279 279 279 278 277 276 278 280 281 281 281 281 281 281 281 281 281 280 280 280 281 281 281 281 281 280 281 281 281 281 280 278 276 275 275 275 274 274 274 273 274 274 274 275 274 274 274 274 274 274 274 273 274 272 272 272 272 272 271 270 269 268 268 268 267 266 265 264 265 264 264 263 263
281 281 280 279 279 279 279 279 279 279 279 279 280 280 280 280 279 277 276 276 277 279 280 281 281 281 281 281 280 280 280 280 280 280 280 280 280 280 280 280 281 281 280 277 277 276 277 276 276 276 275 275 275 275 275 275 275 275 274 274 274 274 274 273 271 270 270 271 271 270 269 269 269 268 267 267 267 266 266 265 265 264 264 264 263
280 275 274 276 279 278 278 278 278 278 278 278 279 279 280 280 279 277 277 276 276 276 277 278 280 281 280 281 281 281 281 281 280 280 280 280 280 281 281 278 277 278 279 278 277 277 277 277 276 276 276 275 275 275 275 275 275 275 274 274 274 274 274 272 271 270 270 270 270 269 269 268 268 268 267 267 266 265 265 265 265 265 264 264 264
278 277 276 277 278 278 278 278 278 278 278 278 279 279 279 279 278 278 278 277 277 277 276 276 274 277 279 278 280 281 281 281 281 281 280 280 281 281 277 276 277 277 277 278 278 278 278 277 277 277 277 276 275 275 275 275 275 275 274 274 273 273 273 272 271 270 270 270 269 269 269 268 268 267 267 267 266 265 265 265 265 265 264 263 263
277 276 276 277 277 277 277 277 278 278 278 276 277 277 277 277 276 278 277 278 277 276 274 271 272 273 273 272 275 278 279 279 280 281 281 281 281 280 278 278 277 277 277 277 277 278 277 277 278 277 277 276 276 275 275 275 274 274 274 274 274 273 273 272 271 270 269 269 269 268 268 267 267 267 266 265 265 265 265 265 264 264 263 263 263
277 276 276 276 276 276 276 275 274 274 274 275 275 275 274 275 275 275 275 275 275 274 272 272 273 272 271 270 272 273 274 276 277 277 279 279 279 278 278 278 278 277 277 278 277 277 277 277 277 276 276 277 276 276 275 275 275 274 274 273 273 272 273 272 272 270 268 268 268 268 267 267 268 266 265 264 264 264 264 264 263 263 264 263 262
274 275 275 275 276 275 274 272 272 273 273 274 274 273 272 273 273 274 274 273 273 273 271 272 272 272 271 269 268 271 272 271 272 272 274 275 276 277 277 277 276 276 276 275 274 274 275 275 274 274 275 276 275 275 275 274 274 274 274 273 272 272 272 272 270 269 268 267 267 267 267 267 267 267 266 265 264 264 264 263 263 263 262 263 262
272 272 273 275 274 274 272 271 272 272 272 273 273 272 272 272 272 272 272 272 271 271 271 270 271 270 268 268 268 270 270 270 271 271 272 273 274 274 275 275 275 275 273 273 273 272 271 271 271 271 271 270 271 271 272 272 273 273 273 273 272 271 271 271 270 269 268 268 267 267 267 266 266 266 266 265 264 264 263 263 263 263 263 262 261
273 272 271 274 273 273 271 272 272 272 272 272 272 272 272 272 271 271 271 271 270 270 270 270 269 266 267 268 271 272 270 270 270 269 269 269 269 269 270 271 272 271 270 270 270 269 269 269 269 269 269 269 269 269 269 269 269 270 270 269 270 270 270 270 269 268 268 268 267 265 265 266 265 264 264 264 265 264 263 262 262 261 262 261 261
273 272 272 271 272 272 272 272 271 269 271 270 272 272 271 270 270 271 270 269 269 269 268 267 266 265 267 271 271 272 269 268 268 268 268 267 267 267 267 266 265 265 266 266 266 266 267 267 268 268 268 268 268 268 268 267 268 268 268 268 268 268 268 268 267 266 266 266 266 265 265 265 264 264 264 265 263 262 261 261 260 261 261 260 260
272 272 271 270 272 272 271 270 269 269 269 270 270 268 268 269 269 269 269 268 268 268 267 266 265 264 266 270 270 272 269 268 267 266 266 265 265 264 264 264 263 261 261 261 263 263 264 265 266 267 266 266 265 265 266 266 267 267 267 267 266 266 266 266 266 264 263 263 264 264 264 263 263 262 262 262 262 261 261 260 260 260 261 261 260
270 270 270 270 270 269 268 269 269 269 269 267 266 266 266 267 268 267 267 267 267 267 267 265 264 265 266 268 269 269 269 268 266 266 264 264 263 263 263 262 261 261 260 260 260 260 261 262 262 261 260 261 261 259 262 263 264 263 263 263 263 263 263 263 264 263 262 261 261 261 261 260 261 261 261 261 259 259 259 259 258 259 259 260 260
268 268 268 268 268 268 268 267 267 265 264 265 265 265 265 267 266 266 266 266 265 266 265 264 264 264 264 265 266 267 267 266 264 264 263 263 262 262 261 260 258 258 259 259 258 257 258 259 258 258 258 259 257 257 258 259 259 259 260 260 260 261 260 260 260 260 261 260 261 261 261 260 259 259 259 259 259 259 259 259 259 259 259 259 259
267 267 267 267 266 265 265 265 264 265 266 266 265 265 265 265 265 265 265 265 264 264 264 263 263 263 263 264 264 264 263 262 262 262 261 261 261 260 260 259 258 257 258 258 257 255 257 257 258 258 257 257 256 257 258 256 257 258 257 257 258 259 259 258 258 257 258 258 259 260 260 259 258 259 259 258 259 259 257 257 257 258 258 258 257
266 266 266 266 265 264 263 264 265 264 265 265 264 264 264 264 264 263 263 263 263 263 263 263 263 262 262 262 262 261 261 261 261 260 259 259 258 259 258 256 256 256 257 256 254 255 254 254 255 255 255 256 255 254 256 257 257 257 257 257 257 257 257 258 257 257 257 257 257 258 258 258 258 258 258 257 258 258 257 257 256 256 256 257 256
265 265 264 264 264 263 263 264 263 262 263 263 263 263 262 262 262 262 262 261 261 262 262 262 262 261 261 261 261 260 260 260 260 259 258 258 257 257 256 254 255 256 256 255 255 255 255 254 254 254 254 254 254 255 255 255 256 256 256 257 256 256 256 257 255 255 256 256 255 255 255 256 257 257 257 257 257 257 256 255 256 256 256 256 256
263 263 263 263 263 263 263 262 262 263 262 262 262 262 261 262 262 262 261 261 261 261 261 260 260 260 260 260 259 259 259 258 258 258 258 258 257 256 255 254 254 254 255 255 255 254 253 254 253 253 253 254 254 254 254 254 254 254 254 255 256 257 256 256 255 254 256 255 255 255 255 255 255 255 256 256 256 256 255 255 255 256 256 256 256
262 262 262 262 262 262 262 262 262 262 261 262 262 261 261 261 261 261 261 261 261 260 260 260 259 259 259 259 258 258 258 258 258 258 258 258 257 256 255 254 252 253 254 253 254 254 253 253 251 252 252 252 253 253 253 254 253 254 253 254 257 257 257 257 256 256 255 254 254 254 254 254 253 254 254 254 254 255 255 255 255 256 255 255 255
260 260 260 260 260 261 261 261 261 261 261 261 261 261 260 260 260 260 260 260 260 260 259 259 259 258 258 259 258 258 258 258 258 258 258 257 256 255 255 254 253 253 253 253 253 254 253 253 253 253 252 252 252 253 252 253 253 253 256 257 257 257 257 257 256 256 257 256 253 254 254 254 253 254 254 254 254 254 255 255 254 254 254 254 254
Wind_Speed
15 12 10 10 12 11 9 8 9 7 9 6 6 7 8 9 8 6 6 7 8 9 8 8 8 8 8 8 9 9 9 9 7 8 8 8 7 8 8 8 9 7 7 7 4 5 6 7 6 5 3 4 4 3 3 3 2 2 1 1 2 1 1 0 1 3 2 2 1 3 3 2 2 2 1 1 1 1 2 2 2 2 3 3 3
14 14 10 9 11 10 10 10 8 8 9 8 9 9 8 8 8 7 7 6 8 9 9 8 8 9 9 9 9 10 10 10 9 9 9 9 8 7 8 9 9 9 8 8 6 5 6 7 6 5 3 4 4 4 4 4 3 2 2 2 2 2 0 1 2 2 3 3 3 3 3 3 2 2 2 1 2 1 2 2 2 2 2 2 3
14 13 10 9 11 10 10 9 9 10 11 9 9 9 8 8 8 9 9 8 8 9 9 9 10 10 9 10 10 11 11 11 9 9 9 10 11 9 8 10 10 10 9 9 8 7 7 7 7 6 4 5 4 4 4 3 3 3 3 2 2 2 2 0 1 3 3 3 2 2 2 3 2 1 0 1 2 2 3 3 2 2 2 3 3
15 15 11 10 11 12 12 10 11 11 11 10 11 10 9 9 9 9 9 8 9 8 9 10 10 10 11 11 11 11 12 11 10 10 11 11 11 11 10 9 9 9 10 10 9 8 8 8 6 7 6 5 4 4 4 4 4 3 3 2 2 2 2 2 2 2 3 3 3 2 1 0 2 0 1 2 3 3 3 3 3 3 3 3 4
13 14 11 12 13 14 13 12 12 12 12 10 12 11 11 10 9 10 9 9 9 9 9 10 10 11 12 13 13 13 13 13 12 11 9 9 11 11 10 9 9 9 9 9 9 9 8 8 8 7 7 6 6 5 5 6 4 4 4 4 4 3 2 2 3 2 3 4 3 1 2 1 2 2 2 3 3 2 2 3 3 3 3 3 3
12 12 11 12 13 15 14 13 13 13 12 11 12 12 11 10 10 9 10 11 10 10 11 11 11 12 12 13 13 13 12 12 12 12 11 11 10 9 9 9 9 8 8 8 8 8 8 8 8 9 8 8 7 6 6 7 5 5 5 5 4 4 3 3 3 3 4 4 4 3 2 2 3 3 3 3 3 3 2 3 3 3 3 3 3
13 14 13 13 13 15 15 15 13 14 13 12 11 11 12 11 11 12 10 10 11 11 10 11 11 12 13 12 12 12 12 12 11 11 11 11 11 11 10 9 8 8 7 8 7 7 8 8 9 9 9 7 7 7 7 7 6 6 6 5 4 4 4 4 4 4 5 5 4 4 3 3 3 4 2 2 2 2 3 4 4 3 3 3 4
14 14 13 13 13 15 15 14 14 13 12 12 12 12 12 11 11 11 10 11 9 10 11 10 9 10 11 12 11 11 12 11 11 11 11 11 11 10 10 10 9 8 8 8 8 8 8 8 8 8 9 8 7 6 7 7 5 5 5 5 5 5 5 4 4 5 5 5 5 3 3 4 4 3 2 2 3 4 5 5 4 3 3 3 3
13 13 12 13 13 12 12 12 12 13 13 12 12 12 13 12 11 10 10 10 8 9 10 11 12 10 10 11 11 10 11 11 10 11 11 10 10 11 10 10 10 10 9 8 7 7 7 7 7 8 9 9 10 7 7 7 6 5 6 6 6 6 5 3 3 3 4 3 3 3 4 5 5 3 4 4 5 4 1 0 3 3 4 4 4
13 13 12 11 10 10 12 12 12 13 13 13 12 11 11 12 9 8 10 9 9 9 10 11 11 12 12 11 10 9 9 8 11 17 15 13 12 9 9 10 11 11 10 9 8 8 8 8 7 11 11 11 10 9 8 9 10 6 6 6 7 5 5 4 4 4 4 4 4 3 4 5 5 5 4 4 2 1 1 3 5 4 3 5 5
12 13 12 12 10 11 11 12 11 14 14 12 11 11 12 11 10 10 9 9 10 10 11 10 10 10 10 11 11 9 8 8 14 13 14 16 12 11 12 11 10 11 11 11 10 9 8 8 7 9 9 9 10 10 9 9 10 9 7 8 8 8 6 6 6 5 5 4 3 4 5 6 6 4 4 3 3 4 4 3 4 4 4 3 4
13 13 12 11 13 14 12 12 13 13 13 13 12 11 11 10 10 11 10 9 9 9 10 11 11 11 10 12 13 12 11 12 16 15 13 14 13 12 11 10 10 11 10 10 9 9 9 8 8 6 8 9 8 8 10 12 13 12 11 9 9 11 11 10 8 6 6 5 5 6 4 8 6 5 5 4 4 4 4 4 4 4 5 3 5
13 12 12 12 14 14 13 13 13 13 13 12 9 9 11 10 10 10 11 10 10 12 13 13 13 13 13 13 13 11 10 16 17 16 14 15 14 13 9 10 11 11 10 10 10 10 9 8 8 7 7 10 8 8 8 9 12 14 13 14 13 14 14 15 14 8 4 6 7 8 9 6 7 6 5 4 3 5 4 3 4 4 4 4 4
12 13 12 12 14 14 13 12 12 13 11 10 10 10 11 12 11 10 10 10 12 12 10 12 11 12 12 12 12 11 10 14 16 17 15 15 15 11 9 11 10 10 11 11 10 10 10 9 9 9 7 8 8 9 9 8 8 9 10 9 9 12 16 18 18 17 12 8 9 11 10 7 8 4 3 3 5 4 4 4 3 3 3 4 4
12 13 13 12 14 14 14 13 13 11 12 11 11 11 11 10 11 10 10 10 10 9 9 9 7 7 9 9 10 10 9 16 16 17 16 16 16 10 9 8 8 9 9 10 10 10 10 9 9 8 8 9 10 11 9 9 7 7 7 8 10 9 10 11 12 11 10 10 10 11 9 8 8 6 5 4 5 5 4 3 3 3 3 4 4
13 12 13 13 15 15 14 13 13 12 13 11 11 12 11 11 11 8 8 7 7 7 6 8 11 11 9 8 10 10 8 16 16 17 17 17 18 9 8 8 9 9 9 8 8 7 8 8 8 9 8 9 11 15 12 7 6 7 8 8 8 9 10 10 13 13 12 11 11 10 8 8 9 6 6 5 3 3 2 1 0 1 2 4 6
14 15 13 13 15 15 15 14 13 11 11 11 12 12 11 10 9 8 9 9 9 10 10 9 8 8 10 9 10 9 8 14 17 17 18 19 14 8 7 6 6 8 8 8 7 7 8 9 9 9 9 9 11 16 17 12 6 8 9 9 8 7 9 7 13 18 20 19 17 17 16 16 16 16 15 14 8 5 3 3 6 4 5 6 6
15 14 14 13 14 15 15 13 12 11 11 12 12 11 10 8 10 10 11 11 11 11 11 10 9 9 10 10 10 9 8 13 17 17 18 20 14 9 8 7 7 7 6 7 6 7 9 13 12 9 9 9 11 16 17 13 9 9 8 9 10 11 10 6 4 7 15 18 19 19 18 17 17 18 18 17 16 11 6 8 6 5 6 6 6
15 15 14 13 14 14 14 12 12 12 12 11 11 11 11 11 10 9 9 9 9 8 10 9 8 7 8 9 11 10 7 9 17 16 18 18 13 7 7 6 7 6 6 7 7 7 8 10 15 12 9 6 11 15 17 14 9 9 10 8 11 13 11 7 8 5 5 5 8 10 12 14 12 11 10 19 19 16 9 8 5 6 6 6 5
13 11 10 11 11 12 11 12 12 13 13 12 11 11 10 9 10 10 9 8 7 6 8 9 10 8 7 7 7 7 7 6 11 18 17 17 16 8 6 6 8 8 7 7 7 7 8 7 9 14 14 12 12 14 16 17 11 9 7 10 11 15 5 5 6 6 7 7 7 7 9 8 8 9 10 10 11 10 8 7 8 7 7 6 4
11 10 10 10 9 11 10 12 13 12 12 12 11 10 9 10 10 9 9 7 7 7 8 8 8 7 6 6 6 6 7 7 9 16 17 18 18 14 8 8 8 7 6 7 7 7 6 6 6 11 17 17 16 16 17 18 16 10 9 10 10 6 3 4 5 10 7 6 7 7 8 7 8 7 6 6 5 6 8 9 10 9 7 6 5
9 9 10 9 9 10 10 9 11 11 10 10 10 9 7 8 9 10 8 8 10 9 8 8 8 7 6 6 6 7 6 9 7 13 16 17 18 18 10 9 8 7 7 7 6 7 8 7 7 10 17 18 18 18 18 17 19 11 10 12 12 13 7 5 4 4 6 6 6 7 7 7 7 5 5 5 5 7 6 5 9 8 9 5 6
9 8 7 8 8 9 9 11 10 9 9 10 11 10 8 9 8 8 8 8 9 9 8 8 8 7 6 4 4 6 6 7 10 9 15 18 19 20 18 10 12 8 7 8 7 7 6 7 7 10 14 17 17 18 18 19 16 11 15 15 14 15 11 6 6 6 7 7 7 7 7 7 7 6 6 6 7 6 6 5 6 8 6 5 6
7 7 8 8 9 9 10 10 9 9 10 10 10 10 9 9 9 8 8 8 6 6 4 6 6 7 7 5 5 5 5 6 9 13 12 19 19 19 19 18 13 8 7 7 6 6 5 5 4 8 12 14 16 17 17 16 11 15 16 18 17 14 8 7 7 7 7 8 8 8 8 7 7 6 7 8 8 8 7 6 5 5 5 4 6
9 8 8 8 9 8 9 9 9 8 8 10 10 9 9 9 6 6 8 6 6 5 5 7 8 8 7 7 6 6 6 6 6 9 12 13 17 17 17 18 18 15 8 7 6 4 5 6 6 8 10 12 14 15 14 16 19 17 17 17 14 8 8 8 8 7 8 8 9 9 8 8 9 8 7 6 5 4 4 4 4 3 1 1 2
8 8 7 7 8 9 10 8 8 8 8 8 8 8 10 8 6 5 5 4 7 9 8 8 7 7 7 7 7 7 7 6 6 6 7 8 10 15 16 16 15 15 12 7 8 9 10 10 9 8 9 9 7 6 6 6 11 17 18 16 8 8 8 8 8 9 7 7 8 9 9 7 5 4 4 5 6 6 6 5 5 5 4 4 3
8 7 8 7 8 9 9 8 7 7 7 4 4 5 5 6 9 9 8 8 8 7 8 8 8 8 8 7 6 6 6 6 6 5 6 6 6 6 8 8 9 9 8 7 7 6 6 6 5 8 8 10 10 9 8 8 7 7 6 7 8 8 8 8 8 8 7 7 7 6 4 2 3 5 4 6 6 5 5 5 5 5 5 4 5
8 8 8 7 5 7 7 9 10 5 5 6 6 5 5 8 8 9 10 10 10 9 8 9 9 8 8 7 6 5 6 5 6 7 7 7 6 5 5 5 5 6 6 5 4 3 3 5 6 4 4 4 5 4 5 5 6 6 6 5 6 6 8 9 8 7 6 5 3 1 1 3 4 4 4 4 5 4 5 5 6 4 4 4 3
9 9 8 8 6 6 7 8 7 8 6 5 5 5 7 6 6 4 4 5 6 8 8 7 6 6 6 7 7 6 4 6 7 7 8 10 9 7 6 6 5 5 6 7 4 2 2 1 1 2 3 3 3 4 5 5 5 5 6 6 5 5 5 6 8 8 7 6 7 5 3 3 3 4 4 4 5 5 4 5 3 4 4 4 5
9 8 7 8 7 7 7 6 6 7 7 6 6 6 8 9 4 5 5 4 6 5 4 3 5 6 5 4 5 6 6 4 9 14 13 13 13 11 9 9 9 6 7 9 4 2 3 3 3 3 3 3 4 4 4 4 4 4 4 6 6 6 6 6 6 7 6 7 8 7 5 4 5 5 6 5 4 5 6 7 4 4 4 5 5
8 7 8 7 8 7 7 7 6 6 6 7 6 6 4 5 11 10 7 6 7 9 10 9 8 6 4 4 6 12 11 12 14 13 13 13 13 12 11 11 11 10 9 5 2 3 3 3 3 3 3 3 3 3 3 3 3 4 4 4 4 5 6 6 5 5 7 7 7 6 5 5 5 5 6 6 5 5 5 4 4 4 5 5 5
8 7 8 8 9 7 7 7 7 7 6 6 7 7 5 5 4 8 9 7 7 8 8 8 8 8 7 7 5 4 8 11 12 12 12 13 12 12 11 11 10 9 9 8 3 3 3 3 3 3 3 3 3 2 2 2 2 3 3 4 5 4 4 5 4 5 7 7 7 5 5 4 4 5 5 5 5 5 6 6 6 5 5 5 5
10 8 7 8 8 9 8 8 8 8 8 8 7 7 7 7 6 5 5 8 8 7 7 7 7 7 8 8 7 7 7 9 12 12 12 12 12 11 10 10 9 10 10 6 4 3 3 3 3 3 2 2 2 1 1 2 3 3 4 4 4 3 3 4 6 6 6 6 6 6 5 4 4 3 4 4 5 5 5 6 5 5 5 5 5
8 8 8 9 9 8 8 8 8 8 7 7 7 7 6 6 5 6 6 5 5 4 5 6 6 7 8 8 8 9 10 11 11 11 11 11 10 10 9 6 9 10 9 5 5 5 5 5 5 4 3 3 2 2 3 3 4 4 4 4 4 4 4 2 3 3 3 3 4 3 3 4 4 4 4 4 4 4 5 5 5 6 6 6 6
7 8 10 8 7 8 7 7 7 7 7 7 7 6 6 5 6 8 7 7 7 7 6 5 5 7 6 7 10 10 10 10 10 10 10 10 10 10 10 5 6 6 6 6 5 6 6 6 4 4 5 5 5 4 5 5 5 5 5 4 4 4 3 3 4 4 3 3 4 4 3 4 4 4 4 5 5 5 6 5 5 6 6 6 5
7 7 7 8 7 7 6 7 6 7 7 7 6 5 6 5 6 6 5 5 6 7 6 5 5 6 9 8 7 8 10 10 10 10 10 11 11 12 7 6 5 6 6 7 7 6 5 5 4 4 4 4 5 5 4 4 4 3 3 3 4 4 4 4 3 4 4 4 4 4 4 4 4 4 4 5 6 6 5 5 6 6 6 5 4
6 6 6 6 6 6 6 5 5 5 5 5 5 5 4 4 3 5 5 5 6 5 5 6 6 4 4 2 5 8 8 7 7 9 10 10 12 8 5 5 6 6 6 7 6 5 5 5 4 4 3 4 5 5 5 5 4 3 4 4 4 4 4 4 4 3 4 4 4 5 5 5 4 5 5 5 4 4 5 4 4 5 5 5 5
5 5 6 6 6 6 6 5 6 8 5 5 3 4 4 4 4 4 5 5 5 6 7 6 6 6 6 4 3 3 4 7 8 5 5 7 6 6 6 5 5 5 5 5 5 6 5 4 4 4 4 4 5 5 4 4 4 4 4 4 4 4 7 6 5 4 4 3 4 4 4 4 4 3 4 4 4 4 4 5 4 4 4 5 4
5 7 9 9 7 4 4 6 6 5 4 3 3 4 5 6 5 4 4 4 5 5 4 5 5 5 4 5 3 4 6 4 4 4 4 5 5 4 4 5 4 4 2 2 2 1 1 1 0 1 1 1 2 3 3 3 3 4 4 4 4 4 5 4 4 4 4 4 4 4 4 4 4 4 4 4 4 4 4 4 4 4 5 5 4
5 5 5 6 4 6 3 3 4 4 3 4 4 4 5 5 5 5 4 5 5 4 5 5 5 3 4 6 5 6 6 5 4 4 4 5 5 5 5 5 5 5 4 3 2 2 2 1 1 0 0 1 1 1 2 1 0 0 1 3 4 4 4 4 4 4 4 4 4 4 4 3 3 4 4 4 3 3 4 4 4 4 4 3 3
5 5 5 5 5 6 5 4 3 3 3 3 3 3 3 4 4 3 4 5 4 4 4 4 4 4 4 5 8 7 3 3 3 3 3 3 3 3 2 2 3 2 2 3 2 2 2 2 2 1 1 1 1 1 0 0 0 0 0 0 1 2 3 3 3 2 3 3 3 2 2 3 3 3 4 4 5 4 3 3 3 3 3 3 3
5 5 4 4 5 4 4 3 3 4 4 4 3 3 3 3 3 3 3 4 3 4 4 4 4 3 5 9 7 7 3 1 3 3 2 2 2 2 1 2 2 2 2 2 2 2 2 2 2 2 2 1 1 1 1 1 1 1 1 2 3 2 2 3 3 2 2 2 2 3 3 3 3 4 4 4 3 3 3 3 3 3 2 3 3
4 4 4 3 3 2 3 4 3 3 3 3 3 3 3 3 2 3 3 2 3 4 4 4 4 3 4 7 6 7 2 1 3 2 2 2 1 2 1 2 2 2 2 2 2 2 1 1 2 1 2 2 1 1 0 0 0 0 1 1 2 2 2 2 2 2 2 1 2 2 2 2 3 2 2 2 2 3 3 3 3 3 3 3 4
4 4 3 4 4 5 4 3 3 2 2 4 5 3 2 2 2 3 2 3 3 3 3 3 3 4 3 3 4 3 4 3 2 2 2 2 2 2 2 2 2 2 2 2 1 1 0 1 1 2 3 1 1 1 0 0 1 0 1 1 1 2 2 2 2 1 2 2 2 2 2 2 2 2 3 3 3 3 3 3 3 3 3 3 4
3 3 4 3 3 3 3 3 3 4 4 3 3 2 2 2 2 2 2 3 2 3 3 4 4 3 3 3 4 5 3 2 1 2 2 2 2 2 2 2 2 2 2 1 2 1 1 1 1 1 1 1 2 1 0 0 0 1 1 1 1 1 1 1 0 1 0 1 1 2 2 3 3 3 3 3 3 3 3 3 3 4 4 4 4
3 3 3 4 4 3 3 3 2 2 2 2 3 3 2 2 2 2 2 2 2 3 3 3 3 3 2 2 2 1 2 1 1 1 1 1 2 2 2 2 2 2 1 2 2 1 1 1 1 1 1 1 2 1 1 1 1 0 0 1 1 1 2 2 3 2 0 0 1 1 2 2 3 3 4 3 2 3 3 3 3 3 4 4 4
4 4 4 3 4 3 3 2 2 2 2 2 2 2 2 2 2 2 2 3 3 3 3 2 2 2 2 2 2 2 2 1 1 1 1 1 1 2 2 2 2 1 2 2 2 2 2 1 1 1 1 1 1 1 0 1 1 2 2 2 2 1 1 0 1 1 1 1 1 1 2 2 2 2 4 2 2 3 3 3 3 4 3 3 3
4 4 4 3 3 3 3 3 4 3 2 2 2 2 2 2 2 3 3 3 3 3 3 2 2 2 2 2 2 2 1 1 1 1 1 1 1 1 2 2 2 2 2 2 2 2 2 2 2 1 2 2 2 2 3 3 2 2 2 3 3 3 4 4 2 1 1 2 2 3 3 3 3 3 3 3 4 3 4 4 3 3 4 4 4
4 4 3 3 3 3 3 3 2 2 2 2 3 3 2 3 3 3 3 3 3 2 2 2 2 2 1 1 1 1 1 1 1 1 2 1 2 2 3 3 2 1 1 2 2 2 2 2 2 2 3 2 2 3 3 2 3 3 3 2 3 5 5 4 3 2 3 2 2 2 3 3 4 4 3 3 4 4 4 3 3 3 3 3 4
4 4 4 4 3 4 3 3 3 3 3 2 3 3 3 3 3 3 3 2 2 2 1 2 1 1 1 1 1 2 2 2 2 2 2 2 2 3 3 3 3 3 2 2 2 2 2 2 3 2 2 2 2 2 2 2 3 3 3 3 6 7 6 6 6 5 3 2 3 3 3 4 3 4 4 4 4 4 4 4 4 5 3 3 4
4 4 4 4 4 4 4 4 4 4 3 3 3 3 2 2 2 2 2 2 1 1 1 1 1 1 0 1 1 2 2 2 2 2 2 2 3 3 3 3 3 3 3 3 2 2 2 2 2 3 3 3 3 3 3 3 3 3 6 8 8 7 6 6 4 7 8 5 3 3 4 4 4 4 4 4 4 5 6 5 5 4 4 3 4
Wind_Direction
213 208 189 184 179 179 177 176 182 179 182 149 160 172 177 181 182 179 150 160 150 158 160 154 149 150 139 148 146 146 143 146 147 148 144 144 144 143 146 141 134 129 127 121 119 120 113 109 104 102 109 116 119 123 114 116 113 113 106 127 148 147 222 271 264 275 109 91 139 152 156 161 245 189 202 236 244 266 286 268 288 292 294 299 314
210 212 199 176 175 175 178 182 180 172 172 162 178 180 178 181 176 157 172 161 161 164 160 153 154 151 152 149 150 145 146 148 154 155 153 149 141 147 147 142 136 135 139 136 130 120 119 119 116 119 122 120 129 132 135 144 155 148 157 160 160 173 192 138 277 254 257 154 167 143 159 183 231 209 167 249 292 301 286 285 274 264 275 298 304
209 211 196 175 180 173 176 184 181 182 182 181 184 179 180 178 172 172 174 167 166 168 155 153 155 155 154 155 153 152 153 155 160 160 158 152 148 152 152 149 148 150 148 144 137 131 128 131 133 130 128 133 143 145 147 155 161 166 162 164 179 171 157 205 216 256 260 266 122 180 186 179 216 232 247 244 267 256 256 260 257 266 273 278 278
207 211 202 177 179 181 186 182 182 183 185 186 186 182 180 181 177 178 176 167 167 160 153 156 160 162 161 162 161 159 158 160 164 167 161 157 155 154 156 156 154 152 148 144 143 145 145 138 138 143 147 148 156 155 159 167 168 177 167 173 185 175 170 170 243 225 268 256 262 189 212 152 272 224 191 233 231 242 249 257 254 251 247 250 260
205 207 196 183 182 192 190 186 184 187 190 186 189 182 182 182 182 182 173 171 168 153 154 162 165 168 170 169 167 167 168 166 166 162 160 158 158 157 157 154 151 151 149 149 147 147 147 148 148 152 159 159 165 171 171 175 177 180 174 179 182 182 157 190 198 236 236 249 256 251 140 229 243 238 231 232 255 256 248 252 249 240 250 255 250
199 197 190 178 186 190 194 191 190 192 191 190 190 187 182 183 182 186 180 173 166 163 166 171 175 178 177 177 175 172 167 165 163 162 160 157 156 155 151 151 149 146 144 144 148 149 150 149 152 161 169 174 174 176 175 180 180 185 184 181 179 177 177 187 197 208 232 243 243 253 248 225 250 240 202 213 248 272 284 280 250 228 232 245 244
193 195 188 183 186 193 195 197 189 190 191 191 187 188 187 184 183 187 183 174 170 166 171 172 181 180 179 176 177 170 164 164 164 162 159 158 157 154 152 148 146 145 143 142 139 138 146 156 163 173 179 182 176 176 178 178 184 189 185 185 178 177 186 190 198 209 220 233 245 243 236 247 236 244 248 207 223 244 263 282 273 241 219 234 261
194 192 184 187 187 193 193 191 193 187 186 187 186 187 186 185 186 184 178 177 170 167 167 168 168 179 180 177 172 167 166 166 166 164 163 160 157 155 154 152 146 141 138 141 145 150 161 166 170 180 185 189 186 181 175 178 177 186 186 181 183 184 193 197 200 210 221 231 234 226 241 241 240 253 220 201 240 251 224 222 253 271 285 286 280
192 189 188 193 191 179 182 182 187 190 187 186 187 187 187 184 183 183 180 178 171 168 173 170 171 175 176 177 174 173 173 172 169 165 161 161 159 157 157 155 151 149 150 147 148 154 166 176 179 185 193 196 194 187 181 176 174 182 188 177 187 186 192 201 202 211 228 227 229 234 232 237 240 229 230 225 226 242 219 323 278 276 272 273 269
189 189 191 193 184 173 177 181 184 185 186 191 191 185 182 177 167 163 176 171 169 166 166 172 178 179 174 176 175 176 181 180 173 167 167 165 165 160 154 154 153 151 142 134 149 170 176 181 192 196 198 201 203 202 189 184 190 188 183 181 182 185 187 192 206 213 220 226 226 213 232 242 231 225 232 234 229 257 251 241 254 266 281 276 275
190 191 193 189 176 174 180 184 177 187 188 185 187 186 179 176 176 176 176 171 170 170 170 172 175 179 178 176 174 180 183 181 170 169 170 170 163 161 160 160 160 161 164 167 173 175 183 188 194 201 203 205 210 207 198 194 198 203 204 195 182 183 182 191 210 212 216 227 217 220 233 242 237 226 228 225 231 225 232 239 251 266 262 273 278
189 191 189 184 182 187 186 180 187 191 186 189 186 183 174 178 178 177 174 171 175 169 174 181 181 178 178 178 180 184 185 177 171 171 167 166 167 165 164 163 166 167 171 174 174 173 182 188 196 198 199 199 191 201 210 210 205 208 211 209 204 202 195 192 201 213 211 210 226 231 226 238 238 223 228 222 222 222 218 214 228 239 254 258 267
187 188 190 185 183 189 187 186 188 186 187 185 180 172 178 179 181 178 181 176 170 180 185 182 187 185 183 183 188 187 188 177 171 170 167 167 164 166 170 169 166 174 175 178 178 180 183 187 198 207 210 196 195 203 205 209 211 213 215 218 218 215 215 217 217 217 202 212 224 238 230 228 236 231 216 216 223 218 215 226 228 236 242 257 261
188 192 191 190 185 191 190 191 190 189 184 181 178 178 179 185 183 180 175 179 185 188 188 189 186 184 183 185 187 184 184 174 170 172 169 167 164 160 167 171 178 178 182 183 186 187 185 189 199 210 202 183 197 205 210 202 194 200 210 213 217 221 223 225 225 224 219 218 219 232 234 218 229 225 223 213 208 214 213 229 225 232 240 250 277
188 190 193 190 184 192 192 189 189 184 183 180 181 182 183 182 184 184 183 184 182 182 183 182 186 190 186 182 180 180 186 175 173 172 170 169 170 160 163 171 182 189 191 190 193 190 193 199 206 208 196 191 198 200 205 207 196 194 201 212 218 216 213 217 217 215 214 220 226 232 233 223 228 224 217 212 201 204 206 211 212 229 265 285 282
192 191 195 192 188 191 188 186 186 185 183 181 180 183 183 184 181 171 168 175 182 176 174 177 185 187 185 181 182 186 179 172 173 173 174 175 171 172 172 175 184 192 197 197 199 199 199 205 209 212 208 203 198 194 201 201 199 196 205 215 219 223 226 217 213 208 211 213 220 224 225 225 222 212 211 205 195 181 180 164 194 177 222 256 261
194 195 195 190 186 189 189 186 185 181 181 180 184 183 180 178 174 172 178 180 180 180 185 189 186 181 183 181 183 185 181 176 176 177 179 177 171 176 176 176 186 195 202 200 199 202 207 207 210 215 214 215 189 185 198 194 203 204 214 221 225 229 235 223 219 216 217 218 219 223 227 229 230 230 228 221 196 187 177 201 209 180 224 250 262
196 194 196 189 185 187 184 182 178 175 177 184 183 182 178 178 180 178 182 178 186 189 183 182 181 180 181 184 185 183 184 180 177 178 179 180 177 176 178 181 189 196 207 205 196 202 208 208 213 218 217 220 187 184 194 191 207 212 215 223 233 238 240 214 224 227 230 232 235 235 235 234 236 237 236 233 228 220 169 210 188 181 221 231 254
194 195 195 187 180 177 179 176 173 172 176 179 177 176 179 181 181 180 189 190 186 177 176 170 174 177 182 184 184 183 175 172 177 179 180 182 177 176 176 178 189 203 206 211 205 210 216 213 213 214 217 214 190 188 195 192 207 211 213 220 235 240 240 200 225 225 225 234 245 246 252 250 249 248 244 242 239 238 222 196 189 204 217 229 245
191 186 180 172 170 171 176 173 170 171 174 173 175 180 177 174 180 182 184 183 179 166 169 172 172 175 169 171 176 179 169 165 178 179 179 183 181 178 185 182 202 205 205 203 207 216 219 221 204 207 215 209 201 201 204 201 207 216 207 221 234 245 233 203 223 220 234 231 241 239 246 245 242 241 238 233 236 233 228 187 199 204 216 222 219
179 184 179 163 167 171 170 172 169 169 170 174 174 175 176 179 175 178 178 173 169 165 168 167 165 164 164 166 168 179 174 166 177 183 184 186 188 186 196 203 205 202 197 204 212 218 221 215 216 194 207 214 216 216 216 218 218 217 215 226 228 243 152 204 217 220 226 231 237 235 237 234 232 227 206 198 185 194 208 211 217 219 223 223 226
174 176 174 171 166 164 161 161 164 164 164 161 165 173 174 170 173 172 172 170 169 169 165 163 161 159 158 167 172 177 178 178 170 189 190 192 195 195 199 207 197 197 205 211 213 226 224 216 223 195 198 210 217 221 225 226 228 229 229 229 233 229 220 219 203 199 215 217 223 229 228 227 226 206 194 189 191 202 202 207 215 218 229 203 206
166 167 163 161 158 158 158 158 160 157 160 163 162 167 162 163 162 161 161 159 160 157 161 160 160 161 154 157 167 176 178 188 186 188 197 199 199 202 203 199 200 201 210 218 216 226 223 228 226 200 195 205 213 220 225 228 230 231 236 237 234 228 222 216 218 224 228 227 228 234 231 225 225 209 194 205 211 202 205 197 204 214 215 214 219
157 158 161 161 156 156 155 156 154 156 160 159 162 159 160 158 156 161 160 158 149 149 139 153 153 160 167 163 173 179 178 182 192 189 193 198 201 204 207 207 200 205 208 224 224 225 228 225 223 202 193 200 211 219 225 227 227 232 233 235 235 235 236 230 220 224 228 231 228 230 232 224 220 212 204 208 209 199 204 200 196 203 210 215 218
157 164 161 160 154 150 148 153 155 154 156 158 160 161 153 151 140 153 161 152 144 134 143 160 170 173 174 176 174 177 181 182 185 188 189 199 205 208 211 211 214 210 213 224 224 225 229 230 230 185 191 203 213 222 229 231 233 233 233 237 236 234 235 237 237 224 228 226 230 234 234 227 223 213 202 198 173 147 170 206 199 198 200 238 240
153 153 151 148 147 142 144 144 145 149 153 162 160 152 139 156 145 131 136 138 159 166 163 169 174 174 180 179 178 175 171 167 174 179 189 196 208 214 215 217 219 221 224 225 218 223 232 237 225 209 212 211 219 227 232 231 236 243 246 245 238 234 232 234 235 231 224 222 227 231 237 237 223 201 160 133 156 188 178 186 188 207 198 218 230
140 141 144 142 141 147 145 151 146 145 152 130 119 120 133 135 154 160 161 158 167 169 168 172 177 178 179 181 173 159 157 168 172 172 176 183 193 203 215 224 226 230 234 234 236 236 235 225 222 233 236 235 234 238 248 248 247 244 240 234 233 234 237 236 233 234 237 235 238 244 244 183 95 111 149 167 188 189 183 189 198 203 182 197 209
141 139 138 138 120 135 143 134 136 118 140 145 139 130 146 165 161 166 174 173 173 177 174 176 180 179 174 166 160 152 166 173 179 177 179 181 178 177 188 194 199 205 213 217 209 217 224 231 237 240 234 234 235 227 229 227 230 231 233 230 228 229 234 242 246 242 236 236 262 193 153 127 174 172 166 187 198 185 175 190 201 202 188 185 216
136 135 130 106 106 135 126 141 145 145 142 137 134 149 165 170 165 161 174 179 184 176 174 169 175 173 164 165 161 171 174 192 201 175 178 180 176 172 177 180 179 187 194 192 168 138 131 152 185 215 219 225 230 231 227 226 233 230 223 221 228 229 229 223 235 242 246 252 254 239 211 159 175 166 172 186 194 186 171 191 199 186 213 197 219
123 127 130 136 137 135 137 143 141 144 146 143 124 77 48 59 74 165 165 109 105 91 125 152 160 156 161 162 167 181 196 189 152 173 175 178 179 171 164 168 172 162 170 178 155 159 198 197 205 202 212 212 216 221 223 221 227 224 223 217 218 225 228 230 232 237 240 243 251 248 232 184 201 181 189 197 195 185 191 193 199 183 193 217 226
138 135 138 147 148 146 145 146 148 147 146 141 129 123 119 63 54 60 87 99 96 90 84 91 113 130 141 125 85 86 100 123 150 164 166 174 178 178 173 174 175 174 168 151 169 180 189 200 205 203 203 204 214 220 218 218 225 233 237 228 226 225 232 231 231 232 240 245 247 242 235 215 214 192 200 202 199 188 171 185 174 196 202 210 228
142 143 149 147 144 147 150 149 146 151 149 145 146 144 132 128 92 72 83 104 106 105 105 106 106 103 102 116 126 113 120 128 140 152 160 166 173 177 180 176 175 172 177 167 156 189 182 188 202 209 196 201 204 204 213 221 235 243 253 255 252 237 208 222 224 230 240 244 242 235 229 224 216 210 205 200 190 188 181 188 190 199 210 212 219
144 148 147 146 148 146 149 154 157 157 156 154 154 157 152 148 137 132 90 90 103 118 122 123 129 132 131 133 136 139 150 152 151 152 156 159 161 162 161 166 170 176 172 182 188 198 210 210 207 203 200 196 213 207 199 213 226 235 241 242 246 232 217 228 226 227 230 233 238 240 232 224 216 211 203 187 189 196 183 190 194 197 203 215 226
147 150 152 156 154 152 151 155 155 157 155 156 155 155 156 149 139 134 134 126 103 100 118 142 149 151 152 150 147 142 146 153 156 156 156 155 153 154 158 168 182 188 190 193 204 211 212 216 222 216 208 217 221 218 229 241 240 238 234 233 229 227 234 200 176 217 218 228 228 227 218 225 213 212 211 201 206 195 197 192 193 199 206 212 219
126 124 128 139 150 148 152 151 151 150 152 156 151 152 148 148 142 150 154 154 154 153 149 140 154 175 175 168 169 161 155 154 155 156 156 158 161 163 163 167 182 199 205 209 210 217 221 224 223 211 205 203 203 204 215 222 227 227 230 228 233 229 222 181 200 203 200 210 222 224 207 201 206 209 213 216 209 206 210 210 209 205 212 219 219
133 134 136 146 146 151 151 155 149 151 156 157 154 143 134 135 147 155 149 145 144 138 135 127 112 106 115 97 128 161 169 166 164 162 165 169 172 170 169 186 183 199 206 215 216 217 214 214 216 226 210 203 198 206 214 216 221 219 223 225 229 230 219 204 196 200 205 200 210 218 217 210 213 212 219 222 213 209 207 204 211 216 214 216 220
110 118 131 144 143 138 127 131 134 133 128 129 127 126 127 124 117 133 142 145 141 133 123 125 133 134 94 64 91 114 122 137 158 175 179 180 184 186 189 192 200 200 206 210 211 211 211 212 202 200 203 200 204 196 200 204 202 205 219 227 228 228 226 200 191 183 188 196 203 206 206 207 204 204 203 215 218 214 220 215 214 213 204 220 220
134 133 137 140 134 128 129 120 119 122 119 111 99 105 119 124 130 136 141 141 138 136 143 154 162 163 169 161 123 119 111 107 100 122 165 184 195 202 206 208 208 213 210 209 198 199 207 207 205 205 212 214 212 213 200 196 196 199 199 208 222 217 226 225 217 185 189 192 203 200 200 213 211 194 198 211 221 217 211 205 203 215 225 216 204
98 117 128 133 133 126 122 117 127 131 123 129 134 133 140 140 140 137 135 116 137 139 139 150 161 162 144 137 129 130 127 147 170 178 176 182 193 199 203 209 202 202 186 152 112 118 181 198 35 5 212 212 197 208 209 207 197 200 205 198 210 213 219 208 202 189 190 198 204 196 192 203 209 208 194 205 223 221 213 197 199 200 214 219 213
109 113 119 119 115 129 116 122 125 125 138 136 138 131 118 134 144 140 126 129 136 140 147 155 154 123 112 136 144 156 163 167 167 174 174 179 183 189 194 203 206 205 189 177 158 154 145 133 132 144 66 50 36 35 28 36 9 283 216 213 206 216 221 204 205 205 203 197 193 203 200 196 200 206 210 208 208 214 212 209 207 206 215 219 227
115 111 126 138 128 126 122 128 133 137 132 121 118 132 125 121 111 114 129 141 136 134 137 139 113 102 132 152 160 160 144 147 137 137 154 164 167 167 180 192 199 185 133 143 143 137 133 140 147 156 146 119 109 99 88 66 79 150 202 221 249 236 230 234 215 210 219 211 195 187 185 177 185 184 211 215 221 219 209 201 199 197 209 214 220
111 117 116 116 136 126 125 115 106 118 110 109 112 127 127 130 127 137 131 132 126 137 129 113 110 124 150 153 154 149 117 100 120 134 130 128 131 143 121 79 60 80 86 94 102 123 135 137 146 150 147 133 125 130 127 163 179 184 202 219 222 224 226 226 214 206 204 211 207 197 204 201 200 211 213 216 202 193 199 203 201 201 199 201 201
82 90 92 103 107 113 98 97 94 99 104 113 106 98 105 109 116 120 117 116 118 132 130 128 120 129 139 151 152 157 130 127 112 127 124 139 137 119 116 111 87 65 61 58 47 49 75 119 133 132 131 103 76 70 71 70 50 229 234 209 226 239 238 241 228 187 170 199 209 201 188 208 205 192 194 199 206 201 192 191 196 203 207 204 204
83 82 80 78 72 67 70 93 102 93 87 89 88 77 84 91 91 97 100 108 122 118 115 117 120 132 132 140 155 172 158 166 150 156 138 140 142 148 128 111 112 109 101 99 87 60 60 87 98 81 83 109 95 78 26 15 16 339 301 280 256 246 256 262 256 219 184 180 195 185 190 199 212 206 204 203 195 203 207 190 202 201 209 205 205
76 89 98 93 82 85 84 66 62 78 95 100 92 80 79 79 97 94 107 119 110 111 105 108 114 120 121 127 153 171 168 140 122 117 143 154 145 138 122 120 131 130 122 128 112 119 122 112 89 100 102 105 113 121 124 46 35 359 323 318 266 250 226 200 275 9 42 152 184 188 191 175 193 214 219 213 200 196 209 204 196 209 212 211 210
90 91 87 97 100 89 83 80 80 94 106 98 118 128 116 93 87 103 110 102 99 103 97 96 101 110 123 137 138 132 113 101 118 124 137 146 148 136 124 128 111 133 158 137 128 142 100 87 118 123 139 124 113 132 132 123 164 200 10 333 315 304 342 45 53 56 40 142 211 202 205 198 199 207 215 224 212 193 199 217 207 201 203 212 216
65 75 85 97 94 84 80 98 106 102 94 88 91 96 107 97 101 91 79 78 86 86 86 94 107 122 119 129 126 114 108 134 146 141 157 126 99 112 109 113 137 167 153 148 141 153 148 159 162 153 152 150 124 132 210 207 173 176 180 194 208 209 222 151 138 151 179 183 175 199 218 207 217 214 215 207 229 231 205 205 203 212 211 210 206
62 64 63 67 79 87 88 87 87 81 81 82 84 85 86 90 89 84 85 79 76 79 85 91 98 97 95 93 84 93 109 119 101 118 125 157 163 141 131 147 171 181 161 152 165 164 163 162 162 159 168 177 186 201 192 201 205 201 198 203 195 195 179 157 156 178 188 175 175 183 191 205 224 224 213 191 199 209 208 210 208 210 208 213 220
67 75 85 80 85 89 90 88 89 86 88 91 89 85 78 83 81 78 83 86 89 90 100 100 93 91 95 102 102 106 119 134 168 182 177 185 161 159 166 185 171 171 158 185 177 165 174 179 169 173 188 199 197 201 210 206 216 216 217 223 206 191 184 189 195 198 187 179 185 189 202 206 209 219 216 207 200 203 209 212 204 207 210 208 203
67 65 74 80 78 77 75 77 73 76 73 74 76 79 78 76 76 79 82 88 91 95 93 95 103 115 124 128 150 171 176 193 201 199 194 184 171 176 170 173 177 195 195 196 200 172 177 187 184 204 203 213 217 213 220 221 220 227 225 221 234 228 215 210 210 208 188 200 205 206 200 210 210 207 208 203 200 202 207 213 210 211 213 213 210
56 58 56 57 61 61 60 62 61 56 57 61 65 71 77 80 84 81 86 87 101 98 91 99 109 119 135 179 176 191 201 210 207 198 196 184 180 175 184 180 190 195 207 199 204 199 196 192 193 194 196 203 209 214 219 225 224 221 232 238 237 229 222 216 211 216 209 205 203 203 204 205 205 207 209 207 196 199 210 212 210 207 210 209 211